Location: Kott?ru
(16.6209°N, 80.6208°E)
Time: 13:21:16
(UTC+00:00)

SJ 16-02 - Pass Details

Date: 18 September 2020
Orbit: 606 x 616 km, 75.0° (Epoch: 31 October)

Event Time Altitude Azimuth Distance (km) Brightness Sun altitude
Rises 12:59:05 0° 220° (SW) 2,856 5.3 -6.2°
Reaches altitude 10° 13:01:47 10° 237° (WSW) 1,952 4.8 -6.8°
Maximum altitude 13:05:03 21° 286° (WNW) 1,382 4.4 -7.6°
Drops below altitude 10° 13:08:20 10° 335° (NNW) 1,951 4.3 -8.4°
Sets 13:11:02 0° 351° (N) 2,854 4.9 -9.0°
